Tucumcari, NM

10:27 AM MDT on May 27, 2017 (GMT -0600)
Tucumcari Municipal

Weather History for KTCC - November, 2012

Change the Weather History Date:

Sunday, November 18, 2012

  Actual Average Record
Temperature  
Mean Temperature 60 °F -  
Max Temperature 71 °F 63 °F 79 °F (1942)
Min Temperature 48 °F 35 °F 14 °F (1926)
Degree Days  
Heating Degree Days 6    
Growing Degree Days 10 (Base 50)    
Moisture  
Dew Point 39 °F    
Average Humidity 54    
Maximum Humidity 77    
Minimum Humidity 26    
Precipitation  
Precipitation 0.00 in - - ()
Sea Level Pressure  
Sea Level Pressure 29.96 in    
Wind  
Wind Speed 12 mph (SW)    
Max Wind Speed 24 mph    
Max Gust Speed 30 mph    
Visibility 10 miles    
Events      
Averages and records for this station are not official NWS values.
T = Trace of Precipitation, MM = Missing Value Source: NWS Daily Summary

Daily Weather History Graph

Daily Weather History Graph

Search for Another Location

Airport or City:

Trip Planner

Search our weather history database for the weather conditions in past years. The results will help you decide how hot, cold, wet, or windy it might be!

Date:

Astronomy

Nov. 18, 2012 Rise Set
Actual Time 6:32 AM MST 4:46 PM MST
Civil Twilight 6:05 AM MST 5:13 PM MST
Nautical Twilight 5:34 AM MST 5:44 PM MST
Astronomical Twilight 5:04 AM MST 6:14 PM MST
Moon 11:03 AM MST (11/18) 10:05 PM MST (11/18)
Length of Visible Light 11h 08m
Length of Day
10h 13m
Waxing Crescent, 31% of the Moon is Illuminated
Nov 18
Waxing Crescent
Nov 20
First Quarter
Nov 28
Full
Dec 6
Last Quarter
Dec 13
New

Hourly Weather History & Observations

Time (MST) Temp. Dew Point Humidity Pressure Visibility Wind Dir Wind Speed Gust Speed Precip Events Conditions
12:53 AM 51.1 °F 39.9 °F 66% 29.97 in 10.0 mi SSW 6.9 mph - N/A   Clear
1:53 AM 52.0 °F 41.0 °F 66% 29.96 in 10.0 mi Variable 6.9 mph - N/A   Clear
2:53 AM 52.0 °F 41.0 °F 66% 29.96 in 10.0 mi SW 10.4 mph - N/A   Clear
3:53 AM 51.1 °F 41.0 °F 68% 29.95 in 10.0 mi SW 9.2 mph - N/A   Clear
4:53 AM 50.0 °F 39.0 °F 66% 29.96 in 10.0 mi SW 9.2 mph - N/A   Clear
5:53 AM 52.0 °F 36.0 °F 54% 29.97 in 10.0 mi WSW 9.2 mph - N/A   Clear
6:53 AM 52.0 °F 36.0 °F 54% 29.99 in 10.0 mi WSW 10.4 mph - N/A   Clear
7:53 AM 53.1 °F 35.1 °F 50% 29.98 in 10.0 mi SW 11.5 mph - N/A   Clear
8:53 AM 57.0 °F 33.1 °F 40% 29.99 in 10.0 mi NW 5.8 mph - N/A   Clear
9:53 AM 62.1 °F 34.0 °F 35% 29.99 in 10.0 mi SSW 10.4 mph 16.1 mph N/A   Overcast
10:53 AM 66.0 °F 34.0 °F 30% 29.96 in 10.0 mi SW 19.6 mph 28.8 mph N/A   Clear
11:53 AM 66.0 °F 36.0 °F 33% 29.95 in 10.0 mi SSW 24.2 mph 28.8 mph N/A   Clear
12:53 PM 66.9 °F 37.0 °F 33% 29.91 in 10.0 mi SSW 23.0 mph 28.8 mph N/A   Scattered Clouds
1:53 PM 70.0 °F 37.0 °F 30% 29.89 in 10.0 mi SW 21.9 mph 29.9 mph N/A   Clear
2:53 PM 71.1 °F 34.0 °F 26% 29.88 in 10.0 mi WSW 15.0 mph - N/A   Clear
3:53 PM 66.0 °F 42.1 °F 42% 29.91 in 10.0 mi SSW 24.2 mph 29.9 mph N/A   Clear
4:53 PM 62.1 °F 44.1 °F 52% 29.95 in 10.0 mi SSW 17.3 mph - N/A   Clear
5:53 PM 57.9 °F 44.1 °F 60% 29.97 in 10.0 mi SSW 16.1 mph - N/A   Clear
6:53 PM 55.9 °F 45.0 °F 67% 29.99 in 10.0 mi SSW 18.4 mph 24.2 mph N/A   Clear
7:53 PM 54.0 °F 46.0 °F 75% 30.00 in 10.0 mi SW 23.0 mph - N/A   Clear
8:53 PM 53.1 °F 45.0 °F 74% 30.00 in 10.0 mi SW 20.7 mph 26.5 mph N/A   Clear
9:53 PM 50.0 °F 43.0 °F 77% 30.01 in 10.0 mi WSW 12.7 mph - N/A   Clear
10:53 PM 48.9 °F 41.0 °F 74% 30.01 in 10.0 mi WSW 12.7 mph - N/A   Clear
11:53 PM 48.9 °F 36.0 °F 61% 30.01 in 10.0 mi West 10.4 mph - N/A   Clear